Tracking 17154 objects as of 2-August-2015
HD Live streaming from Space Station

BREEZE-M DEB (TANK)

Track BREEZE-M DEB (TANK) now!
BREEZE-M DEB (TANK) is classified as:


NORAD ID: 32374
Int'l Code: 2007-058B
Perigee: 466.1 km
Apogee: 34,584.0 km
Inclination: 46.4 °
Period: 612.7 minutes
Semi major axis: 23896 km
RCS: 5.0489 m2 (large)
Launch date: December 9, 2007
Source: Commonwealth of Independent States (former USSR) (CIS)

Note: This is SATELLITE DEBRIS
Your satellite tracking list
Your tracking list is empty





NASA's NSSDC Master Catalog

Two Line Element Set (TLE):
1 32374U 07058B   15212.92082841 -.00000002  00000-0  38175-3 0  9994
2 32374 046.4492 019.6276 7138803 068.8557 348.6833 02.35024496 64651

Source of the keplerian elements: AFSPC

N2YO: 234